Toledo Metcalf, OH

1:49 PM EDT on April 26, 2017 (GMT -0400)
Metcalf

Weather History for KTDZ - June, 2013

Change the Weather History Date:

Tuesday, June 11, 2013

  Actual Average (KTOL) Record (KTOL)
Temperature  
Mean Temperature 74 °F -  
Max Temperature 84 °F 79 °F 97 °F (1933)
Min Temperature 66 °F 54 °F 32 °F (1972)
Cooling Degree Days 9    
Growing Degree Days 24 (Base 50)    
Moisture  
Dew Point 63 °F    
Average Humidity 74    
Maximum Humidity 94    
Minimum Humidity 49    
Precipitation  
Precipitation 0.00 in - - ()
Sea Level Pressure  
Sea Level Pressure 29.86 in    
Wind  
Wind Speed 8 mph (WNW)    
Max Wind Speed 15 mph    
Max Gust Speed 21 mph    
Visibility 9 miles    
Events      
Averages and records for this station are not official NWS values.
T = Trace of Precipitation, MM = Missing Value Source: NWS Daily Summary

Daily Weather History Graph

Daily Weather History Graph

Search for Another Location

Airport or City:

Trip Planner

Search our weather history database for the weather conditions in past years. The results will help you decide how hot, cold, wet, or windy it might be!

Date:

Astronomy

Jun. 11, 2013 Rise Set
Actual Time 5:59 AM EDT 9:08 PM EDT
Civil Twilight 5:25 AM EDT 9:42 PM EDT
Nautical Twilight 4:42 AM EDT 10:25 PM EDT
Astronomical Twilight 3:50 AM EDT 11:17 PM EDT
Moon 8:43 AM EDT (6/11) 11:08 PM EDT (6/11)
Length of Visible Light 16h 16m
Length of Day
15h 08m
Waxing Crescent, 8% of the Moon is Illuminated
Jun 11
Waxing Crescent
Jun 16
First Quarter
Jun 23
Full
Jun 30
Last Quarter
Jul 8
New

Hourly Weather History & Observations

Time (EDT) Temp. Heat Index Dew Point Humidity Pressure Visibility Wind Dir Wind Speed Gust Speed Precip Events Conditions
12:12 AM 66.2 °F - 64.4 °F 94% 29.79 in 10.0 mi SW 5.8 mph - N/A   Overcast
12:34 AM 66.2 °F - 64.4 °F 94% 29.79 in 10.0 mi WSW 6.9 mph - N/A   Mostly Cloudy
12:53 AM 66.9 °F - 64.0 °F 90% 29.78 in 10.0 mi WSW 5.8 mph - N/A   Partly Cloudy
1:53 AM 66.9 °F - 64.0 °F 90% 29.79 in 9.0 mi West 9.2 mph - N/A   Mostly Cloudy
2:27 AM 66.2 °F - 64.4 °F 94% 29.80 in 8.0 mi WNW 5.8 mph - N/A   Overcast
2:53 AM 66.9 °F - 64.9 °F 93% 29.80 in 8.0 mi NW 9.2 mph - N/A   Overcast
3:53 AM 66.9 °F - 64.0 °F 90% 29.81 in 7.0 mi WNW 10.4 mph - N/A   Overcast
4:17 AM 66.2 °F - 64.4 °F 94% 29.82 in 7.0 mi NW 8.1 mph - N/A   Overcast
4:53 AM 66.9 °F - 64.0 °F 90% 29.82 in 5.0 mi NW 8.1 mph - N/A   Overcast
5:53 AM 66.9 °F - 64.0 °F 90% 29.85 in 6.0 mi NW 11.5 mph - N/A   Overcast
6:04 AM 66.2 °F - 62.6 °F 88% 29.86 in 7.0 mi NW 12.7 mph - N/A   Overcast
6:53 AM 66.9 °F - 62.1 °F 84% 29.86 in 8.0 mi NW 9.2 mph - N/A   Overcast
7:53 AM 66.9 °F - 62.1 °F 84% 29.89 in 10.0 mi WNW 10.4 mph - N/A   Overcast
8:53 AM 69.1 °F - 63.0 °F 81% 29.90 in 10.0 mi West 5.8 mph - N/A   Overcast
9:53 AM 70.0 °F - 63.0 °F 78% 29.90 in 10.0 mi West 9.2 mph - N/A   Overcast
10:53 AM 73.9 °F - 63.0 °F 68% 29.91 in 10.0 mi WNW 9.2 mph - N/A   Mostly Cloudy
11:03 AM 73.4 °F - 62.6 °F 69% 29.92 in 10.0 mi WNW 11.5 mph - N/A   Mostly Cloudy
11:19 AM 73.4 °F - 62.6 °F 69% 29.92 in 10.0 mi WNW 10.4 mph - N/A   Mostly Cloudy
11:27 AM 75.2 °F - 62.6 °F 65% 29.91 in 10.0 mi WNW 9.2 mph - N/A   Scattered Clouds
11:53 AM 75.0 °F - 63.0 °F 66% 29.91 in 10.0 mi West 10.4 mph - N/A   Scattered Clouds
12:53 PM 77.0 °F - 63.0 °F 62% 29.91 in 10.0 mi West 15.0 mph 18.4 mph N/A   Scattered Clouds
1:53 PM 80.1 °F 81.5 °F 63.0 °F 56% 29.90 in 10.0 mi WNW 11.5 mph - N/A   Partly Cloudy
2:53 PM 80.1 °F 81.5 °F 63.0 °F 56% 29.89 in 10.0 mi WNW 11.5 mph - N/A   Mostly Cloudy
3:53 PM 81.0 °F 81.9 °F 62.1 °F 52% 29.88 in 10.0 mi West 11.5 mph - N/A   Scattered Clouds
4:53 PM 82.9 °F 84.0 °F 63.0 °F 51% 29.86 in 10.0 mi West 12.7 mph 20.7 mph N/A   Clear
5:53 PM 82.9 °F 83.7 °F 62.1 °F 49% 29.85 in 10.0 mi West 12.7 mph - N/A   Partly Cloudy
6:53 PM 82.0 °F 83.1 °F 63.0 °F 52% 29.83 in 10.0 mi West 10.4 mph - N/A   Clear
7:53 PM 81.0 °F 81.9 °F 62.1 °F 52% 29.84 in 10.0 mi West 6.9 mph - N/A   Clear
8:53 PM 80.1 °F 81.7 °F 64.0 °F 58% 29.83 in 10.0 mi SW 3.5 mph - N/A   Clear
9:53 PM 75.9 °F - 64.0 °F 67% 29.84 in 10.0 mi West 4.6 mph - N/A   Clear
10:53 PM 75.0 °F - 64.0 °F 69% 29.87 in 10.0 mi West 6.9 mph - N/A   Clear
11:53 PM 75.0 °F - 63.0 °F 66% 29.87 in 10.0 mi West 8.1 mph - N/A   Scattered Clouds